Cloud_Cover
100 100 100 100 86 96 72 100 33 99 58 2 2 0 1 5 5 5 48 96 98 100 88 14 41 76 28 48 93 0 4 4 4 1 0 0 3 0 0 2 5 0 0 0 0 0 0
100 100 100 100 100 100 100 89 77 22 24 0 1 1 0 0 5 63 68 98 100 100 100 64 100 100 62 98 95 0 5 0 0 0 0 0 1 0 1 5 0 0 5 3 0 0 0
100 100 100 100 100 52 38 2 0 0 0 0 0 0 0 0 0 5 20 100 100 100 100 100 100 100 97 100 14 5 19 0 3 5 0 5 0 0 5 5 5 5 5 4 0 0 0
100 100 100 100 100 36 2 0 23 56 3 0 0 0 0 0 2 2 24 100 100 100 100 100 100 100 100 100 18 100 5 5 0 0 2 5 5 5 7 30 16 21 10 5 0 0 0
100 100 100 100 100 100 47 0 0 0 1 0 0 0 2 0 100 43 35 100 100 100 100 100 100 100 100 100 73 93 24 5 5 4 2 17 10 9 32 86 16 81 6 5 5 0 0
100 100 100 100 100 100 82 4 4 0 0 0 0 1 7 19 100 98 36 86 100 100 100 100 100 100 100 100 100 100 100 5 2 5 5 100 20 69 26 67 87 88 6 9 13 0 0
100 100 100 18 65 100 100 5 3 10 5 5 5 5 5 100 84 100 68 100 100 100 100 100 100 100 100 100 100 95 100 100 5 5 38 5 98 64 100 31 8 26 5 7 31 5 2
16 85 100 100 100 99 18 26 5 5 5 5 5 10 14 100 100 100 100 100 100 100 100 100 100 100 100 100 100 100 94 100 32 12 47 3 100 87 100 100 51 13 26 31 5 5 5
100 100 100 89 100 100 100 99 84 5 5 5 5 5 94 92 100 100 100 100 100 100 100 100 100 100 100 100 100 100 100 100 89 5 86 8 100 58 90 40 96 61 94 45 5 58 5
100 100 100 90 100 100 5 26 17 5 5 5 5 5 6 99 100 100 100 100 100 100 100 100 100 100 100 100 100 100 100 100 100 100 100 69 100 96 31 5 5 8 99 68 7 22 88
100 100 100 100 99 71 9 5 4 4 5 5 5 5 5 100 90 44 100 100 100 100 100 100 100 100 100 100 100 100 100 99 100 100 73 100 100 18 5 8 33 98 44 74 7 79 51
100 100 100 94 27 42 12 31 6 9 5 5 5 5 16 45 100 14 99 100 100 100 72 100 100 100 100 100 100 100 100 97 100 100 19 100 100 8 100 74 91 89 79 77 5 75 100
91 100 100 100 66 53 98 90 23 5 5 5 5 14 59 84 99 100 100 100 100 100 100 100 100 100 99 100 100 100 100 100 97 75 100 100 100 100 18 5 38 6 56 12 5 98 100
79 100 100 100 64 100 90 20 0 5 5 5 10 18 15 79 100 86 100 100 100 100 100 100 100 100 100 100 100 100 100 100 100 28 100 100 94 98 87 5 5 92 64 98 99 91 100
100 100 100 100 100 97 13 0 0 5 17 5 44 7 61 98 100 100 100 100 99 100 100 100 100 100 100 100 100 100 100 100 100 100 100 100 100 100 100 100 37 38 67 94 19 71 100
100 100 100 100 81 20 5 5 4 5 5 5 32 18 5 65 100 100 100 100 100 100 100 100 100 100 100 100 100 100 100 100 100 100 100 100 100 100 100 98 61 88 95 100 38 59 100
94 100 100 100 79 5 1 2 5 5 2 46 96 100 12 92 99 100 100 100 100 100 100 100 100 100 100 100 100 100 100 100 100 100 100 100 100 100 94 50 99 96 58 96 22 13 38
6 73 84 22 31 5 5 5 5 2 89 78 100 100 15 98 100 100 100 100 100 100 100 100 100 100 100 100 100 100 100 86 100 100 99 100 100 100 100 100 99 96 65 100 100 18 54
35 98 96 5 5 5 5 5 2 54 41 66 100 100 42 100 100 100 100 49 100 100 100 100 100 100 100 100 100 100 98 85 100 100 100 100 100 100 100 100 10 92 83 66 31 95 99
22 80 65 5 5 5 5 13 5 41 92 100 100 100 100 100 97 90 90 31 100 100 100 100 100 100 100 100 100 100 100 100 100 100 100 93 100 100 100 100 77 19 70 98 56 12 54
38 70 4 15 5 3 74 92 38 100 100 100 100 100 29 100 100 94 73 59 84 100 100 100 100 100 100 100 100 100 100 100 100 100 100 100 100 100 100 100 39 5 100 64 5 33 5
5 5 27 87 5 5 37 99 100 100 100 100 100 100 100 100 53 100 100 98 70 100 100 100 100 100 100 100 100 100 100 100 100 85 100 100 100 100 100 100 100 100 100 100 100 57 49
48 92 43 5 18 97 100 100 100 100 100 100 100 100 100 100 91 100 78 55 98 100 100 100 100 100 100 100 100 100 99 100 100 100 89 92 100 99 100 100 100 100 100 100 84 98 100
78 61 71 100 100 100 100 100 100 100 100 100 100 100 100 100 100 87 71 100 100 100 100 100 100 100 100 100 100 100 100 100 100 100 100 100 82 94 100 100 95 100 100 100 99 100 55
100 100 100 100 100 100 100 100 100 100 100 100 100 100 100 100 100 98 100 100 100 100 100 100 100 100 63 100 100 100 100 100 100 100 100 100 100 100 100 100 48 99 100 100 100 100 55
100 100 100 100 100 100 100 100 100 100 100 100 100 100 100 100 100 100 100 100 100 100 100 100 100 100 100 98 99 100 100 100 100 100 100 100 100 100 100 83 20 99 100 100 100 52 100
100 100 100 100 100 100 100 100 100 100 100 100 100 100 100 100 100 100 100 100 100 100 100 100 100 44 65 100 100 100 94 69 92 99 100 100 100 100 100 100 100 100 100 100 100 100 100
100 100 100 100 100 100 100 100 100 100 100 100 100 100 100 100 100 100 100 100 100 100 100 100 100 70 74 64 53 94 94 13 5 13 25 39 73 98 100 97 89 100 100 100 100 100 100
100 100 100 100 100 100 100 100 100 100 100 100 100 100 100 100 100 100 100 100 100 100 100 100 100 100 84 5 10 4 5 30 5 4 0 0 1 12 2 6 0 4 70 100 100 100 98